When you browse on this site, cookies collect data to enhance your experience and personalize the content and advertising you see.
Visit our Privacy Policy to learn more. By continuing to use the site, you agree to this use of cookies and data.
  • In Sweden
  • List of Countries
  • For 7 days
  • Water Temperature
  • Weather Map
  • Weather Widgets
  • user-avatar
    Login

    Hourly Weather Tuzla

    Today, 3 April, Friday

    Time Temperature Precipitation Wind Pressure Humidity
    00:00 +2°C° 0 mm 1 mps 718 mmHg 88%
    01:00 +2°C° 0 mm 1 mps 718 mmHg 88%
    02:00 +2°C° 0 mm 1 mps 718 mmHg 88%
    03:00 +1°C° 0 mm 1 mps 718 mmHg 88%
    04:00 +1°C° 0 mm 1 mps 717 mmHg 88%
    05:00 +2°C° 0 mm 1 mps 718 mmHg 84%
    06:00 +4°C° 0 mm 1 mps 718 mmHg 79%
    07:00 +4°C° 0 mm 0 mps 718 mmHg 74%
    08:00 +7°C° 0 mm 1 mps 719 mmHg 67%
    09:00 +9°C° 0 mm 1 mps 719 mmHg 60%
    10:00 +12°C° 0 mm 1 mps 719 mmHg 52%
    11:00 +12°C° 0 mm 1 mps 719 mmHg 51%
    12:00 +13°C° 0 mm 1 mps 719 mmHg 50%
    13:00 +13°C° 0 mm 2 mps 719 mmHg 49%
    14:00 +13°C° 0 mm 2 mps 719 mmHg 51%
    15:00 +12°C° 0 mm 2 mps 719 mmHg 52%
    16:00 +11°C° 0 mm 3 mps 719 mmHg 54%
    17:00 +9°C° 0 mm 2 mps 719 mmHg 61%
    18:00 +8°C° 0 mm 1 mps 719 mmHg 69%
    19:00 +6°C° 0 mm 1 mps 719 mmHg 77%
    20:00 +6°C° 0 mm 1 mps 720 mmHg 77%
    21:00 +4°C° 0 mm 0 mps 720 mmHg 78%
    22:00 +4°C° 0 mm 0 mps 721 mmHg 79%
    23:00 +4°C° 0 mm 0 mps 721 mmHg 79%

    Tomorrow, 4 April, Saturday

    Time Temperature Precipitation Wind Pressure Humidity
    00:00 +3°C° 0 mm 0 mps 721 mmHg 79%
    01:00 +3°C° 0 mm 0 mps 721 mmHg 80%
    02:00 +3°C° 0 mm 0 mps 721 mmHg 80%
    03:00 +2°C° 0 mm 0 mps 721 mmHg 81%
    04:00 +2°C° 0 mm 0 mps 721 mmHg 81%
    05:00 +3°C° 0 mm 0 mps 722 mmHg 78%
    06:00 +5°C° 0 mm 1 mps 722 mmHg 75%
    07:00 +6°C° 0 mm 1 mps 723 mmHg 72%
    08:00 +7°C° 0 mm 2 mps 723 mmHg 67%
    09:00 +8°C° 0 mm 3 mps 723 mmHg 63%
    10:00 +10°C° 0 mm 3 mps 724 mmHg 59%
    11:00 +11°C° 0 mm 4 mps 724 mmHg 56%
    12:00 +11°C° 0 mm 4 mps 723 mmHg 54%
    13:00 +12°C° 0 mm 5 mps 723 mmHg 51%
    14:00 +12°C° 0 mm 5 mps 723 mmHg 53%
    15:00 +10°C° 0 mm 5 mps 723 mmHg 54%
    16:00 +10°C° 0 mm 5 mps 723 mmHg 56%
    17:00 +10°C° 0 mm 4 mps 723 mmHg 62%
    18:00 +9°C° 0 mm 3 mps 723 mmHg 68%
    19:00 +7°C° 0 mm 2 mps 724 mmHg 74%
    20:00 +7°C° 0 mm 2 mps 724 mmHg 75%
    21:00 +7°C° 0 mm 2 mps 725 mmHg 77%
    22:00 +7°C° 0 mm 2 mps 725 mmHg 78%
    23:00 +7°C° 0 mm 2 mps 725 mmHg 82%

    Day after tomorrow, 5 April, Sunday

    Time Temperature Precipitation Wind Pressure Humidity
    00:00 +6°C° 0 mm 2 mps 725 mmHg 86%
    01:00 +6°C° 0 mm 1 mps 725 mmHg 90%
    02:00 +5°C° 0 mm 1 mps 725 mmHg 91%
    03:00 +5°C° 0 mm 1 mps 725 mmHg 92%
    04:00 +4°C° 0 mm 1 mps 725 mmHg 92%
    05:00 +5°C° 0 mm 1 mps 726 mmHg 90%
    06:00 +5°C° 0 mm 1 mps 726 mmHg 87%
    07:00 +5°C° 0 mm 2 mps 726 mmHg 84%
    08:00 +7°C° 0 mm 3 mps 727 mmHg 76%
    09:00 +9°C° 0 mm 3 mps 727 mmHg 69%
    10:00 +10°C° 0 mm 4 mps 727 mmHg 61%
    11:00 +10°C° 0 mm 5 mps 727 mmHg 58%
    12:00 +11°C° 0 mm 6 mps 727 mmHg 55%
    13:00 +13°C° 0 mm 6 mps 727 mmHg 52%
    14:00 +13°C° 0 mm 6 mps 727 mmHg 53%
    15:00 +11°C° 0 mm 6 mps 727 mmHg 55%
    16:00 +11°C° 0 mm 6 mps 727 mmHg 56%
    17:00 +10°C° 0 mm 5 mps 727 mmHg 62%
    18:00 +8°C° 0 mm 4 mps 727 mmHg 68%
    19:00 +8°C° 0 mm 3 mps 727 mmHg 74%
    20:00 +7°C° 0 mm 3 mps 728 mmHg 77%
    21:00 +6°C° 0 mm 2 mps 728 mmHg 79%
    22:00 +5°C° 0 mm 2 mps 728 mmHg 82%
    23:00 +6°C° 0 mm 1 mps 729 mmHg 83%

    6 April, Monday

    Time Temperature Precipitation Wind Pressure Humidity
    00:00 +5°C° 0 mm 1 mps 729 mmHg 85%
    01:00 +5°C° 0 mm 1 mps 729 mmHg 86%
    02:00 +4°C° 0 mm 1 mps 729 mmHg 86%
    03:00 +4°C° 0 mm 1 mps 729 mmHg 86%
    04:00 +3°C° 0 mm 1 mps 729 mmHg 87%
    05:00 +4°C° 0 mm 1 mps 729 mmHg 81%
    06:00 +5°C° 0 mm 1 mps 730 mmHg 76%
    07:00 +5°C° 0 mm 2 mps 730 mmHg 70%
    08:00 +7°C° 0 mm 2 mps 730 mmHg 61%
    09:00 +9°C° 0 mm 3 mps 730 mmHg 52%
    10:00 +11°C° 0 mm 4 mps 731 mmHg 44%
    11:00 +12°C° 0 mm 4 mps 731 mmHg 41%
    12:00 +13°C° 0 mm 5 mps 730 mmHg 38%
    13:00 +14°C° 0 mm 5 mps 730 mmHg 35%
    14:00 +14°C° 0 mm 5 mps 730 mmHg 36%
    15:00 +14°C° 0 mm 5 mps 730 mmHg 36%
    16:00 +13°C° 0 mm 5 mps 730 mmHg 37%
    17:00 +11°C° 0 mm 4 mps 730 mmHg 44%
    18:00 +9°C° 0 mm 3 mps 730 mmHg 50%
    19:00 +6°C° 0 mm 2 mps 730 mmHg 57%
    20:00 +6°C° 0 mm 2 mps 730 mmHg 60%
    21:00 +5°C° 0 mm 2 mps 730 mmHg 63%
    22:00 +4°C° 0 mm 2 mps 731 mmHg 66%
    23:00 +3°C° 0 mm 2 mps 731 mmHg 67%

    7 April, Tuesday

    Time Temperature Precipitation Wind Pressure Humidity
    00:00 +3°C° 0 mm 2 mps 730 mmHg 69%
    01:00 +2°C° 0 mm 2 mps 730 mmHg 70%
    02:00 +3°C° 0 mm 1 mps 730 mmHg 71%
    03:00 +3°C° 0 mm 1 mps 730 mmHg 71%
    04:00 +2°C° 0 mm 1 mps 730 mmHg 72%
    05:00 +4°C° 0 mm 1 mps 731 mmHg 67%
    06:00 +5°C° 0 mm 1 mps 731 mmHg 63%
    07:00 +5°C° 0 mm 0 mps 731 mmHg 58%
    08:00 +9°C° 0 mm 1 mps 731 mmHg 51%
    09:00 +11°C° 0 mm 1 mps 731 mmHg 44%
    10:00 +13°C° 0 mm 1 mps 732 mmHg 37%
    11:00 +14°C° 0 mm 2 mps 732 mmHg 36%
    12:00 +15°C° 0 mm 2 mps 731 mmHg 35%
    13:00 +16°C° 0 mm 3 mps 731 mmHg 33%
    14:00 +14°C° 0 mm 3 mps 731 mmHg 36%
    15:00 +14°C° 0 mm 3 mps 731 mmHg 39%
    16:00 +13°C° 0 mm 3 mps 730 mmHg 42%
    17:00 +11°C° 0 mm 3 mps 731 mmHg 50%
    18:00 +9°C° 0 mm 2 mps 731 mmHg 59%
    19:00 +7°C° 0 mm 1 mps 731 mmHg 67%
    20:00 +7°C° 0 mm 1 mps 731 mmHg 69%
    21:00 +6°C° 0 mm 1 mps 731 mmHg 71%
    22:00 +5°C° 0 mm 1 mps 732 mmHg 72%
    23:00 +5°C° 0 mm 1 mps 732 mmHg 73%

    8 April, Wednesday

    Time Temperature Precipitation Wind Pressure Humidity
    00:00 +4°C° 0 mm 1 mps 732 mmHg 73%
    01:00 +3°C° 0 mm 1 mps 732 mmHg 73%
    02:00 +3°C° 0 mm 1 mps 732 mmHg 74%
    03:00 +2°C° 0 mm 0 mps 731 mmHg 74%
    04:00 +1°C° 0 mm 0 mps 731 mmHg 75%
    05:00 +3°C° 0 mm 0 mps 732 mmHg 70%
    06:00 +4°C° 0 mm 0 mps 732 mmHg 65%
    07:00 +5°C° 0 mm 0 mps 732 mmHg 61%
    08:00 +8°C° 0 mm 1 mps 732 mmHg 54%
    09:00 +9°C° 0 mm 2 mps 732 mmHg 47%
    10:00 +12°C° 0 mm 3 mps 732 mmHg 40%
    11:00 +12°C° 0 mm 3 mps 732 mmHg 39%
    12:00 +13°C° 0 mm 4 mps 731 mmHg 38%
    13:00 +14°C° 0 mm 5 mps 731 mmHg 37%
    14:00 +14°C° 0 mm 5 mps 731 mmHg 40%
    15:00 +13°C° 0 mm 5 mps 730 mmHg 42%
    16:00 +13°C° 0 mm 5 mps 730 mmHg 45%
    17:00 +11°C° 0 mm 4 mps 730 mmHg 53%
    18:00 +9°C° 0 mm 3 mps 730 mmHg 61%
    19:00 +8°C° 0 mm 1 mps 730 mmHg 69%
    20:00 +7°C° 0 mm 1 mps 730 mmHg 70%
    21:00 +7°C° 0 mm 1 mps 730 mmHg 70%
    22:00 +6°C° 0 mm 1 mps 730 mmHg 71%
    23:00 +6°C° 0 mm 1 mps 730 mmHg 72%
    Show more